Clyde, Nunavut

5:49 AM ADT on July 25, 2017 (GMT -0300)
Clyde

Weather History for CYCY - October, 2012

Change the Weather History Date:

Wednesday, October 31, 2012

  Actual Average Record
Temperature  
Mean Temperature 4 °F -  
Max Temperature 14 °F 6 °F 66 °F (1999)
Min Temperature 1 °F -6 °F -4 °F (1999)
Degree Days  
Heating Degree Days 60    
Moisture  
Dew Point 0 °F    
Average Humidity 78    
Maximum Humidity 92    
Minimum Humidity 54    
Precipitation  
Precipitation 0.00 in 0.03 in - ()
Sea Level Pressure  
Sea Level Pressure 30.49 in    
Wind  
Wind Speed 5 mph ()    
Max Wind Speed 16 mph    
Max Gust Speed -    
Visibility 9.0 miles    
Events      
Averages and records for this station are not official NWS values.
T = Trace of Precipitation, MM = Missing Value Source: Averaged Metar Reports

Daily Weather History Graph

Daily Weather History Graph

Search for Another Location

Airport or City:

Trip Planner

Search our weather history database for the weather conditions in past years. The results will help you decide how hot, cold, wet, or windy it might be!

Date:

Astronomy

Oct. 31, 2012 Rise Set
Actual Time 10:07 AM ADT 4:26 PM ADT
Civil Twilight 8:51 AM ADT 5:42 PM ADT
Nautical Twilight 7:35 AM ADT 6:58 PM ADT
Astronomical Twilight 6:23 AM ADT 8:10 PM ADT
Moon No Moon Rise No Moon Set
Length of Visible Light 8h 51m
Length of Day
6h 18m
Full, 97% of the Moon is Illuminated
Oct 31
Full
Nov 6
Last Quarter
Nov 13
New
Nov 20
First Quarter
Nov 28
Full

Hourly Weather History & Observations

Time (ADT) Temp. Windchill Dew Point Humidity Pressure Visibility Wind Dir Wind Speed Gust Speed Precip Events Conditions
12:00 AM 7 °F - 3 °F 74% 30.53 in 9 mi West 9.2 mph - -  
12:00 AM 6.8 °F -6.9 °F 3.2 °F 85% 30.53 in 9.0 mi West 9.2 mph - N/A   Clear
1:00 AM 6.8 °F -3.5 °F 1.4 °F 79% 30.53 in 9.0 mi West 5.8 mph - N/A   Clear
2:00 AM 5.0 °F -5.6 °F 1.4 °F 85% 30.53 in 9.0 mi West 5.8 mph - N/A   Scattered Clouds
3:00 AM 4 °F - 2 °F 84% 30.53 in 9 mi West 4.6 mph - -  
3:00 AM 5.0 °F -4.1 °F 1.4 °F 85% 30.53 in 9.0 mi West 4.6 mph - N/A   Partly Cloudy
4:00 AM 3.2 °F - -0.4 °F 85% 30.53 in 9.0 mi Calm Calm - N/A   Partly Cloudy
4:31 AM 3.2 °F -4.2 °F 1.4 °F 92% 30.51 in 9.0 mi West 3.5 mph - N/A   Mostly Cloudy
5:00 AM 3.2 °F -4.2 °F 1.4 °F 92% 30.53 in 9.0 mi WNW 3.5 mph - N/A   Overcast
6:00 AM 4 °F - 2 °F 84% 30.52 in 9 mi Calm Calm - -  
6:00 AM 3.2 °F - 1.4 °F 92% 30.52 in 9.0 mi NNW 2.3 mph - N/A   Mostly Cloudy
6:12 AM 3.2 °F - -0.4 °F 85% 30.50 in 9.0 mi WNW 2.3 mph - N/A   Partly Cloudy
7:00 AM 1.4 °F - -0.4 °F 92% 30.52 in 9.0 mi WNW 2.3 mph - N/A   Clear
8:00 AM 1.4 °F - -0.4 °F 92% 30.52 in 9.0 mi NNW 2.3 mph - N/A   Clear
9:00 AM 1 °F - -2 °F 80% 30.51 in 9 mi WNW 6.9 mph - -  
9:00 AM 1.4 °F -9.9 °F -2.2 °F 85% 30.51 in 9.0 mi WNW 5.8 mph - N/A   Clear
10:00 AM 3.2 °F -6.2 °F -0.4 °F 85% 30.50 in 25.0 mi West 4.6 mph - N/A   Partly Cloudy
11:00 AM 3.2 °F -7.8 °F -0.4 °F 85% 30.50 in 25.0 mi West 5.8 mph - N/A   Partly Cloudy
12:00 PM 7 °F - -2 °F 54% 30.50 in 9 mi West 8.1 mph - -  
12:00 PM 6.8 °F -6.9 °F -2.2 °F 67% 30.50 in 25.0 mi West 9.2 mph - N/A   Partly Cloudy
1:00 PM 8.6 °F -3.7 °F -2.2 °F 62% 30.49 in 25.0 mi West 8.1 mph - N/A   Partly Cloudy
2:00 PM 6.8 °F -2.0 °F -2.2 °F 67% 30.49 in 25.0 mi WSW 4.6 mph - N/A   Partly Cloudy
3:00 PM 5 °F - -2 °F 61% 30.48 in 9 mi WNW 16.1 mph - -  
3:00 PM 5.0 °F -13.6 °F -2.2 °F 72% 30.48 in 25.0 mi WNW 16.1 mph - N/A   Partly Cloudy
4:00 PM 8.6 °F -3.7 °F -0.4 °F 67% 30.48 in 25.0 mi West 8.1 mph - N/A   Mostly Cloudy
5:00 PM 3.2 °F - -2.2 °F 78% 30.48 in 25.0 mi Calm Calm - N/A   Mostly Cloudy
6:00 PM 8 °F - 1 °F 62% 30.47 in 9 mi West 8.1 mph - -  
6:00 PM 8.6 °F -2.6 °F 1.4 °F 73% 30.47 in 25.0 mi West 6.9 mph - N/A   Overcast
7:00 PM 8.6 °F - 1.4 °F 73% 30.46 in 25.0 mi Calm Calm - N/A   Overcast
8:00 PM 8.6 °F - 1.4 °F 73% 30.45 in 25.0 mi Calm Calm - N/A   Overcast
9:00 PM 8 °F - 2 °F 68% 30.43 in 9 mi Calm Calm - -  
9:00 PM 8.6 °F - 3.2 °F 79% 30.43 in 9.0 mi Calm Calm - N/A   Clear
10:00 PM 8.6 °F - 3.2 °F 79% 30.43 in 9.0 mi Calm Calm - N/A   Clear
11:00 PM 14.0 °F - 6.8 °F 73% 30.40 in 9.0 mi South 2.3 mph - N/A   Clear